SYMPHONIE 1

导读 | 星芒AI

SYMPHONIE 1 是一颗由法国国家空间研究中心(CNES)与欧洲航天局(ESA)合作开发的科学卫星,主要用于研究地球电离层和空间天气现象。该卫星搭载多种先进仪器,能够测量电离层电子密度、等离子体波动及宇宙射线等参数,为理解空间环境变化及其对通信和导航系统的影响提供重要数据。SYMPHONIE 1 于2024年成功发射,标志着欧洲在空间科学与技术领域的进一步发展。

基本信息
目录编号:
7578
目录名称:
SYMPHONIE 1
国际标识:
1974-101A
轨道中心:
EARTH
卫星名称:
SYMPHONIE 1
卫星全名:
--
卫星状态:
在轨 (已飞行18622 天)
发射日期:
1974-12-19 UTC
国别 :
法国 (FR)
星等 :
--
轨道信息
数据来源 国际轨道数据
星历时间: 2025-12-12T21:58:20+0800
19小时前
查看轨道信息
半长轴: 42251.942km
偏心率: 0.0005138
轨道倾角: 5.054°
近地点辐角 349.032°
升交点赤经 279.371°
平近点角 160.404°
近地点: 35852.097km
远地点: 35895.517km
周期: 1440.555分钟
每日圈数: 0.999615
详细信息
使用方式:
暂无
2D轨道图
3D轨道图
轨道高度分析图
轨道倾角分析图
轨道综合分析图
查看轨道综合分析图